Regional Weather Roundup
Issued by NWS

Home | Current Version | Previous Version | Graphics & Text | Print | Product List | Glossary On
Versions: 1 2 3 4 5 6 7 8 9 10 11 12 13 14 15 16 17 18 19 20 21 22 23 24 25 26 27 28 29 30 31 32 33 34 35 36 37 38 39 40 41 42 43 44 45 46 47 48 49 50
000
ASUS45 KBOU 210207
RWRCO

WEATHER ROUNDUP FOR COLORADO
NATIONAL WEATHER SERVICE DENVER/BOULDER CO
800 PM MDT MON APR 20 2015

NOTE: "FAIR" INDICATES FEW OR NO CLOUDS BELOW 12000 FEET WITH NO
SIGNIFICANT WEATHER AND/OR OBSTRUCTIONS TO VISIBILITY.

COZ001>005-013-030-031-210300-
...NORTHWEST COLORADO...

CITY           SKY/WX    TMP DP  RH WIND       PRES   REMARKS
CRAIG          MOCLDY    46  32  58 SE10      29.94R
HAYDEN         PTCLDY    43  30  61 S5        29.95R
MEEKER         CLOUDY    48  35  60 E7        29.95R
MOUNT WERNER   NOT AVBL
STEAMBOAT SPGS PTCLDY    40  31  68 SE6       29.96S
WALDEN         CLEAR     36  21  55 NW3       29.98R
$$

COZ006>008-011-210300-
...WEST CENTRAL VALLEYS...

CITY           SKY/WX    TMP DP  RH WIND       PRES   REMARKS
GRAND JUNCTION PTCLDY    58  38  47 NW3       29.86R
MONTROSE       CLEAR     58  32  37 SW3       29.93R
EAGLE          PTCLDY    43  36  75 NE3       30.02S
RIFLE          PTCLDY    54  35  48 S6        29.90R
DELTA          CLEAR     61  30  30 W5        29.90R
NUCLA          CLEAR     55  27  33 N3        29.96R
$$

COZ017>023-064>068-210300-
...SOUTHWEST COLORADO...

CITY           SKY/WX    TMP DP  RH WIND       PRES   REMARKS
DURANGO        MOCLDY    54  21  27 W9        29.93R
CORTEZ         CLEAR     52  28  39 CALM      29.92R
PAGOSA SPRINGS MOCLDY    49  20  31 W5        29.97S
TELLURIDE      PTCLDY    45  17  32 NW6       30.06R
WOLF CREEK PAS PTCLDY    30  12  47 W6        30.16R WCI  24
$$

COZ009-010-012-014-032>034-037-058>063-210300-
...CENTRAL COLORADO...

CITY           SKY/WX    TMP DP  RH WIND       PRES   REMARKS
ASPEN          MOCLDY    38  32  79 S8        30.01R
BUENA VISTA    MOCLDY    38  31  78 NW23G33   30.02R
COPPER MTN     NOT AVBL
BERTHOUD PASS  SNOW      18  10  73 NW30      30.06R VSB 1/4 WCI  -2
COTTONWOOD PAS MIX PCPN  36  27  69 CALM      30.06R
GUNNISON       PTCLDY    46  21  36 N16       30.02R
KREMMLING      PTCLDY    36  30  80 SW5       30.02R
LEADVILLE      CLOUDY    28  24  85 CALM      30.05S
SALIDA         MOCLDY    47  26  44 N14       30.06R
SUNLIGHT       PTCLDY    32  28  86 CALM      30.12R
WILKERSON PASS LGT SNOW  27  23  86 NW8G16    30.10R VSB 1   WCI  18
$$

COZ069>075-210300-
...SAN LUIS VALLEY/SANGRE DE CRISTO MOUNTAINS...

CITY           SKY/WX    TMP DP  RH WIND       PRES   REMARKS
ALAMOSA        MOCLDY    48  20  32 N17G25    29.95R
LA VETA PASS   MOCLDY    34  23  64 NW3       30.05R
SAGUACHE       CLEAR     45  23  42 N14       29.98R
$$

COZ035-036-038>040-210300-
...NORTHERN COLORADO FRONT RANGE...

CITY           SKY/WX    TMP DP  RH WIND       PRES   REMARKS
DENVER INTL AP MOCLDY    47  33  58 N3        29.94R
DMNS CITY PARK   N/A     45  37  71 SE2       29.96R
AURORA         MOCLDY    46  34  63 S6        29.96R
FRONT RANGE AP MOCLDY    48  39  71 CALM      29.95
ERIE MUNI ARPT MOCLDY    48  32  54 CALM      29.94R
BOULDER MUN AP MOCLDY    46  34  61 S5        29.93S
CENTENNIAL     MOCLDY    42  37  82 NW5       29.96R
BROOMFIELD     PTCLDY    46  37  71 S6        29.95R
FORT COLLINS   PTCLDY    48  34  57 CALM      29.95R
LONGMONT       PTCLDY    48  35  60 CALM      29.95S
$$

COZ041-046-047-076>085-087-088-210300-
...PIKES PEAK/PALMER DIVIDE AND SOUTHERN FOOTHILLS...

CITY           SKY/WX    TMP DP  RH WIND       PRES   REMARKS
COLO. SPRINGS  MOCLDY    47  33  58 N12G17    29.98R
A. F. ACADEMY  PTCLDY    41  33  74 N8        29.97
ELLICOTT       MOCLDY   N/A N/A N/A CALM      29.96R
FALCON         LGT RAIN  40  33  76 N6        29.99R
FORT CARSON    PTCLDY    47  38  69 W1        29.95R
LIMON          CLOUDY    48  29  47 N8        29.95R
MONUMENT HILL  CLOUDY    41  32  70 N5        29.99R
TRINIDAD       PTCLDY    48  37  65 NW5       29.92R
$$

COZ042>045-048>051-090-091-210300-
...NORTHEAST COLORADO...

CITY           SKY/WX    TMP DP  RH WIND       PRES   REMARKS
GREELEY ARPT   PTCLDY    50  28  43 W5        29.93S
AKRON          MOCLDY    42  28  57 N6        29.91R
BURLINGTON     PTCLDY    50  30  46 N3        29.91R
WRAY           CLEAR     47  26  45 NW7       29.90R
STERLING       PTCLDY    48  30  49 NW3       29.89R
HOLYOKE        CLEAR     48  25  40 NW5       29.89R
FORT MORGAN    PTCLDY    46  25  44 N9        29.92R
$$

COZ086-089-092>099-210300-
...SOUTHEAST COLORADO...

CITY           SKY/WX    TMP DP  RH WIND       PRES   REMARKS
PUEBLO         CLOUDY    56  31  38 E10       29.92R
LA JUNTA       PTCLDY    55  34  45 NE9       29.90R
LAMAR          MOCLDY    52  35  52 NE6       29.89R
SPRINGFIELD      N/A     51  40  65 N3        29.91R
$$


USA.gov is the U.S. government's official web portal to all federal, state and local government web resources and services.